AJ5TT Weather Reports


time (UTC)temp
F
wind
direction
speed
knots
gust
knots
rain 1hr
in
rain 24hr
in
rain mn
in
humidity
%
barometer
mb
20220627211505 94 27 2.6 0.0 0.00 0.00 0.00 58 1015.6
20220627210012 93 33 1.7 0.0 0.00 0.00 0.00 59 1015.7
20220627204505 93 76 2.6 0.0 0.00 0.00 0.00 57 1015.6
20220627203003 93 67 1.7 0.0 0.00 0.00 0.00 55 1015.6
20220627201604 94 128 0.9 0.0 0.00 0.00 0.00 57 1016.2
20220627200059 95 110 0.0 0.0 0.00 0.00 0.00 56 1016.4
20220627194603 95 42 1.7 0.0 0.00 0.00 0.00 55 1016.6
20220627193056 96 51 2.6 0.0 0.00 0.00 0.00 55 1016.6
20220627191554 96 111 1.7 0.0 0.00 0.00 0.00 54 1016.9
20220627190058 97 9 1.7 0.0 0.00 0.00 0.00 53 1016.9
20220627184552 97 360 1.7 0.0 0.00 0.00 0.00 55 1017.0
20220627183051 97 28 0.9 0.0 0.00 0.00 0.00 52 1017.2
20220627181549 97 92 0.0 0.0 0.00 0.00 0.00 53 1017.3
20220627180048 97 20 1.7 0.0 0.00 0.00 0.00 53 1017.4
20220627174548 97 34 1.7 0.0 0.00 0.00 0.00 52 1017.5
20220627173046 97 12 1.7 0.0 0.00 0.00 0.00 52 1017.6
20220627171543 96 360 0.9 0.0 0.00 0.00 0.00 49 1017.7
20220627170040 95 313 2.6 0.0 0.00 0.00 0.00 45 1017.9
20220627164539 95 25 0.0 0.0 0.00 0.00 0.00 52 1018.1
20220627163038 94 279 0.9 0.0 0.00 0.00 0.00 52 1018.1
20220627161538 92 15 0.0 0.0 0.00 0.00 0.00 61 1018.2
20220627160031 92 60 0.0 0.0 0.00 0.00 0.00 66 1018.2
20220627154528 90 33 0.0 0.0 0.00 0.00 0.00 68 1018.3
20220627153023 88 279 0.0 0.0 0.00 0.00 0.00 70 1018.3
20220627151532 87 279 0.0 0.0 0.00 0.00 0.00 73 1018.5
20220627150019 87 279 0.0 0.0 0.00 0.00 0.00 75 1018.2
20220627144518 86 324 0.0 0.0 0.00 0.00 0.00 77 1018.3
20220627143014 86 323 0.0 0.0 0.00 0.00 0.00 78 1018.4
20220627141512 85 323 0.0 0.0 0.00 0.00 0.00 80 1018.5
20220627140007 84 325 0.0 0.0 0.00 0.00 0.00 80 1018.5
20220627134504 84 324 1.7 0.0 0.00 0.00 0.00 82 1018.5
20220627133003 83 38 0.0 0.0 0.00 0.00 0.00 85 1018.4
20220627131559 82 38 0.0 0.0 0.00 0.00 0.00 86 1018.3
20220627130055 81 38 0.0 0.0 0.00 0.00 0.00 88 1018.5
20220627124605 81 38 0.0 0.0 0.00 0.00 0.00 88 1018.2
20220627123052 80 73 0.0 0.0 0.00 0.00 0.00 88 1017.7
20220627121546 80 81 0.0 0.0 0.00 0.00 0.00 90 1017.6
20220627120103 80 90 0.0 0.0 0.00 0.00 0.00 90 1017.4
20220627114548 80 89 0.0 0.0 0.00 0.00 0.00 90 1017.4
20220627113041 80 89 0.0 0.0 0.00 0.00 0.00 90 1017.6
20220627111540 80 89 0.0 0.0 0.00 0.00 0.00 89 1017.6
20220627110040 80 89 0.0 0.0 0.00 0.00 0.00 89 1017.4
20220627104540 80 88 0.0 0.0 0.00 0.00 0.00 89 1017.5
20220627103040 79 88 0.0 0.0 0.00 0.00 0.00 88 1017.5
20220627101541 79 89 0.0 0.0 0.00 0.00 0.00 89 1017.6
20220627100039 79 88 0.0 0.0 0.00 0.00 0.00 88 1017.5
20220627094539 79 88 0.0 0.0 0.00 0.00 0.00 87 1017.4
20220627093100 79 88 0.0 0.0 0.00 0.00 0.00 87 1017.4
20220627091536 79 88 0.0 0.0 0.00 0.00 0.00 88 1017.3
20220627090037 80 88 0.0 0.0 0.00 0.00 0.00 88 1017.4
20220627084537 80 88 0.0 0.0 0.00 0.00 0.00 88 1017.5
20220627083040 79 88 0.0 0.0 0.00 0.00 0.00 90 1017.5
20220627081541 79 88 0.0 0.0 0.00 0.00 0.00 91 1017.4
20220627080034 79 88 0.0 0.0 0.00 0.00 0.00 90 1017.6
20220627074537 79 88 0.0 0.0 0.00 0.00 0.00 89 1017.8
20220627073037 80 88 0.0 0.0 0.00 0.00 0.00 89 1017.7
20220627071531 81 88 0.0 0.0 0.00 0.00 0.00 88 1017.7
20220627070030 81 88 0.0 0.0 0.00 0.00 0.00 87 1017.9
20220627064532 79 88 0.0 0.0 0.00 0.00 0.00 89 1018.0
20220627063036 79 184 0.0 0.0 0.00 0.00 0.00 88 1017.3
20220627061526 79 184 0.0 0.0 0.00 0.00 0.00 88 1017.3
20220627060025 79 184 0.0 0.0 0.00 0.00 0.00 88 1017.3
20220627054524 80 184 0.0 0.0 0.00 0.00 0.00 86 1017.3
20220627053022 80 184 0.0 0.0 0.00 0.00 0.00 87 1017.4
20220627051521 80 184 0.0 0.0 0.00 0.00 0.00 86 1017.4
20220627050019 81 184 0.0 0.0 0.00 0.00 0.00 85 1017.5
20220627044517 81 184 0.0 0.0 0.00 0.00 0.00 84 1017.5
20220627043017 82 184 0.0 0.0 0.00 0.00 0.00 83 1017.3
20220627041516 82 184 0.0 0.0 0.00 0.00 0.00 82 1017.0
20220627040018 82 184 0.0 0.0 0.00 0.00 0.00 82 1016.8
20220627034518 83 187 0.0 0.0 0.00 0.00 0.00 82 1016.7
20220627033014 83 176 0.0 0.0 0.00 0.00 0.00 81 1016.6
20220627031514 83 188 0.0 0.0 0.00 0.00 0.00 80 1016.6
20220627030014 83 195 0.0 0.0 0.00 0.00 0.00 80 1016.5
20220627024513 84 177 0.0 0.0 0.00 0.00 0.00 78 1016.3
20220627023011 85 194 0.9 0.0 0.00 0.00 0.00 77 1016.1
20220627021511 85 175 0.0 0.0 0.00 0.00 0.00 77 1016.1
20220627020010 85 172 0.9 0.0 0.00 0.00 0.00 75 1016.0
20220627014512 86 188 0.0 0.0 0.00 0.00 0.00 73 1015.7
20220627013022 87 183 0.9 0.0 0.00 0.00 0.00 72 1015.8
20220627011515 87 165 0.9 0.0 0.00 0.00 0.00 69 1015.7
20220627010009 89 180 0.0 0.0 0.00 0.00 0.00 67 1015.6
20220627004508 90 161 0.0 0.0 0.00 0.00 0.00 65 1015.6
20220627003007 91 154 0.0 0.0 0.00 0.00 0.00 61 1015.5
20220627001507 92 137 0.0 0.0 0.00 0.00 0.00 54 1015.2
20220627000007 93 144 0.0 0.0 0.00 0.00 0.00 50 1015.1
20220626234507 94 134 0.9 0.0 0.00 0.00 0.00 50 1015.3
20220626233006 95 173 1.7 0.0 0.00 0.00 0.00 52 1015.1
20220626231505 96 191 1.7 0.0 0.00 0.00 0.00 51 1015.0
20220626230009 97 167 0.9 0.0 0.00 0.00 0.00 49 1015.0
20220626224505 97 195 0.9 0.0 0.00 0.00 0.00 48 1014.9
20220626223007 98 88 0.9 0.0 0.00 0.00 0.00 48 1015.0
20220626221504 99 133 0.9 0.0 0.00 0.00 0.00 48 1015.1
20220626220100 99 115 0.9 0.0 0.00 0.00 0.00 48 1015.3
20220626214600 99 130 0.9 0.0 0.00 0.00 0.00 48 1015.3
20220626213057 101 144 0.0 0.0 0.00 0.00 0.00 47 1015.5